Flag for U.S.A. Weather past 2 weeks in Vincennes, Indiana, U.S.A.

Now
78 °F

Partly sunny.


Feels Like: 81 °F
Forecast: 66 / 83 °F
Wind: 8 mph from North

Location: Lawrenceville-Vincennes International Airport

Current Time: Jul 23, 2014 at 4:45:29 PM

Latest Report: Jul 23, 2014 at 3:53 PM


Visibility: 5 mi

Pressure: 30.01 "Hg

Humidity: 82%

Dew point: 72 °F

Location of VincennesLocation

Historic Weather in Vincennes — Graph

°F

Vincennes temperature yesterday

Maximum temperature yesterday: 86 °F (at 12:53 PM)
Minimum temperature yesterday: 64 °F (at 7:00 AM)
Average temperature yesterday: 74 °F

Past Weeks' High & Low Weather Summary

 TemperatureHumidityPressure
High91 °F (Jul 13, 3:53 PM)100% (Jul 14, 2:53 AM)30.21 "Hg (Jul 14, 2:53 AM)
Low54 °F (Jul 17, 6:53 AM)35% (Jul 11, 3:53 PM)29.83 "Hg (Jul 14, 3:53 PM)
Average72 °F74%30.04 "Hg
* Reported Jul 8 2:53 PM — Jul 23 2:53 PM, Vincennes, Weather by CustomWeather, © 2014

Note: Actual official high and low records may vary slightly from our data, if they occured in-between our weather recording intervals... More about our weather records

Advertising

Vincennes weather history for July 9, 2014

 ConditionsComfort  
Time TempWeatherWind HumidityBarometerVisibility
12:53 AM
Jul 9
70 °FClear.5 mph79%29.92 "Hg10 mi
1:53 AM67 °FClear.3 mph87%29.91 "Hg10 mi
2:53 AM67 °FClear.7 mph85%29.91 "Hg10 mi
3:53 AM67 °FClear.7 mph85%29.92 "Hg10 mi
8:53 AM72 °FSunny.6 mph73%29.96 "Hg10 mi
9:53 AM76 °FSunny.7 mph64%29.97 "Hg10 mi
10:53 AM80 °FSunny.9 mph52%29.98 "Hg10 mi
11:53 AM81 °FSunny.8 mph51%29.98 "Hg10 mi
12:53 PM84 °FScattered clouds.12 mph45%29.98 "Hg10 mi
1:53 PM83 °FBroken clouds.12 mph46%29.97 "Hg10 mi
2:53 PM83 °FPartly sunny.7 mph46%29.96 "Hg10 mi
3:53 PM84 °FPartly sunny.9 mph45%29.96 "Hg10 mi
4:53 PM85 °FPartly sunny.12 mph45%29.95 "Hg10 mi
5:53 PM85 °FSunny.14 mph42%29.96 "Hg10 mi
6:53 PM83 °FSunny.8 mph48%29.96 "Hg10 mi
7:53 PM80 °FPartly sunny.7 mph52%29.96 "Hg10 mi
8:53 PM77 °FScattered clouds.6 mph66%29.97 "Hg10 mi
9:53 PM73 °FSunny.8 mph66%29.99 "Hg10 mi
10:53 PM69 °FPassing clouds.5 mph81%30.01 "Hg10 mi
11:53 PM70 °FClear.3 mph71%30.03 "Hg10 mi
Weather by CustomWeather, © 2014

See weather overviewHow to use our weather pages